Satellite: AAUSAT2
Catalog number: 32788
Epoch time:      08171.81573088
Element set:      72
Inclination:      097.9885 deg
RA of node:       231.7096 deg
Eccentricity:    0.0016772
Arg of perigee:   127.7503 deg
Mean anomaly:     232.5207 deg
Mean motion:   14.81532498 rev/day
Decay rate:       4.22e-06 rev/day^2
Epoch rev:             779
Checksum:              324

Satellite: DO-64
Catalog number: 32789
Epoch time:      08170.94227896
Element set:    0081
Inclination:      097.9911 deg
RA of node:       230.8503 deg
Eccentricity:    0.0016683
Arg of perigee:   128.1667 deg
Mean anomaly:     232.1048 deg
Mean motion:   14.81410044 rev/day
Decay rate:       5.89e-06 rev/day^2
Epoch rev:           00766
Checksum:              321

Satellite: SEEDS
Catalog number: 32791
Epoch time:      08170.13573835
Element set:    0078
Inclination:      097.9930 deg
RA of node:       230.0371 deg
Eccentricity:    0.0016969
Arg of perigee:   129.0062 deg
Mean anomaly:     231.2665 deg
Mean motion:   14.81281556 rev/day
Decay rate:       4.28e-06 rev/day^2
Epoch rev:           00751
Checksum:              294

Satellite: CANX-2
Catalog number: 32797
Epoch time:      08169.11117159
Element set:    0033
Inclination:      097.9923 deg
RA of node:       229.0501 deg
Eccentricity:    0.0018051
Arg of perigee:   136.6067 deg
Mean anomaly:     223.6579 deg
Mean motion:   14.81732267 rev/day
Decay rate:      1.971e-05 rev/day^2
Epoch rev:           00607
Checksum:              303

Satellite: RS-30
Catalog number: 32953
Epoch time:      08171.82453915
Element set:      35
Inclination:      082.4998 deg
RA of node:       121.9451 deg
Eccentricity:    0.0017459
Arg of perigee:   249.7553 deg
Mean anomaly:     110.1650 deg
Mean motion:   12.42997024 rev/day
Decay rate:        1.0e-07 rev/day^2
Epoch rev:             337
Checksum:              290

/EX





More information about the Keps mailing list